Ladysmith, WI

12:37 AM CST on November 20, 2017 (GMT -0600)
Rusk County

Weather History for KRCX - February, 2014

Change the Weather History Date:

Friday, February 21, 2014

  Actual Average (KPBH) Record (KPBH)
Temperature  
Mean Temperature 20 °F -  
Max Temperature 32 °F 28 °F 53 °F (2017)
Min Temperature 9 °F 10 °F -22 °F (2008)
Degree Days  
Heating Degree Days 44    
Moisture  
Dew Point 11 °F    
Average Humidity 83    
Maximum Humidity 95    
Minimum Humidity 77    
Precipitation  
Precipitation 0.25 in - - ()
Sea Level Pressure  
Sea Level Pressure 29.32 in    
Wind  
Wind Speed 11 mph (WSW)    
Max Wind Speed 17 mph    
Max Gust Speed 23 mph    
Visibility 5 miles    
Events Snow    
Averages and records for this station are not official NWS values.
T = Trace of Precipitation, MM = Missing Value Source: NWS Daily Summary

Daily Weather History Graph

Daily Weather History Graph

Search for Another Location

Airport or City:

Trip Planner

Search our weather history database for the weather conditions in past years. The results will help you decide how hot, cold, wet, or windy it might be!

Date:

Astronomy

Feb. 21, 2014 Rise Set
Actual Time 6:56 AM CST 5:39 PM CST
Civil Twilight 6:25 AM CST 6:09 PM CST
Nautical Twilight 5:51 AM CST 6:44 PM CST
Astronomical Twilight 5:17 AM CST 7:18 PM CST
Moon No Moon Rise 10:00 AM CST (2/21)
Length of Visible Light 11h 43m
Length of Day
10h 43m
Waning Gibbous, 60% of the Moon is Illuminated
Feb 21
Waning Gibbous
Feb 22
Last Quarter
Mar 1
New
Mar 8
First Quarter
Mar 16
Full

Hourly Weather History & Observations

Time (CST) Temp. Windchill Dew Point Humidity Pressure Visibility Wind Dir Wind Speed Gust Speed Precip Events Conditions
12:15 AM 32.4 °F 26.0 °F 31.1 °F 95% 28.98 in 10.0 mi NNW 6.9 mph - N/A   Overcast
12:35 AM 32.4 °F 25.3 °F 31.1 °F 95% 28.98 in 10.0 mi NW 8.1 mph - N/A   Overcast
12:55 AM 32.2 °F 24.4 °F 30.9 °F 95% 28.99 in 10.0 mi WNW 9.2 mph - N/A   Overcast
1:15 AM 32.0 °F 24.2 °F 30.7 °F 95% 28.99 in 5.0 mi West 9.2 mph - N/A Snow Light Snow
1:35 AM 32.0 °F 23.6 °F 30.6 °F 94% 28.99 in 3.0 mi West 10.4 mph - N/A Snow Light Snow
1:55 AM 31.6 °F 23.1 °F 30.0 °F 94% 29.00 in 4.0 mi West 10.4 mph - N/A Snow Light Snow
2:15 AM 30.7 °F 20.4 °F 28.6 °F 92% 29.01 in 4.0 mi West 13.8 mph - N/A Snow Light Snow
2:35 AM 30.2 °F 20.8 °F 28.0 °F 92% 29.01 in 5.0 mi WNW 11.5 mph 18.4 mph N/A Snow Light Snow
2:55 AM 27.0 °F 15.6 °F 24.1 °F 89% 29.03 in 3.0 mi West 13.8 mph 23.0 mph N/A Snow Light Snow
3:15 AM 25.0 °F 13.1 °F 22.1 °F 89% 29.04 in 3.0 mi West 13.8 mph 21.9 mph N/A Snow Light Snow
3:35 AM 23.4 °F 10.6 °F 20.5 °F 89% 29.05 in 2.5 mi West 15.0 mph - N/A Snow Light Snow
3:55 AM 21.9 °F 8.2 °F 19.2 °F 89% 29.06 in 2.0 mi West 16.1 mph - N/A Snow Light Snow
4:15 AM 20.3 °F 5.7 °F 17.2 °F 88% 29.08 in 2.5 mi West 17.3 mph - N/A Snow Light Snow
4:35 AM 19.4 °F 5.0 °F 15.8 °F 86% 29.09 in 4.0 mi West 16.1 mph 19.6 mph N/A   Overcast
4:55 AM 18.9 °F 4.3 °F 15.3 °F 86% 29.11 in 4.0 mi West 16.1 mph 20.7 mph N/A   Overcast
5:15 AM 18.3 °F 4.6 °F 14.5 °F 85% 29.12 in 4.0 mi West 13.8 mph 20.7 mph N/A   Overcast
5:35 AM 17.1 °F 3.0 °F 13.3 °F 85% 29.14 in 4.0 mi West 13.8 mph 17.3 mph N/A Snow Light Snow
5:55 AM 15.8 °F 1.4 °F 12.0 °F 85% 29.15 in 4.0 mi West 13.8 mph 19.6 mph N/A Snow Light Snow
6:15 AM 14.9 °F 0.9 °F 10.8 °F 84% 29.16 in 5.0 mi West 12.7 mph - N/A   Overcast
6:35 AM 14.5 °F 0.5 °F 10.2 °F 83% 29.17 in 7.0 mi West 12.7 mph - N/A   Overcast
6:55 AM 14.0 °F -0.8 °F 9.9 °F 84% 29.19 in 3.0 mi West 13.8 mph 18.4 mph N/A Snow Light Snow
7:15 AM 13.6 °F 1.6 °F 9.5 °F 84% 29.20 in 4.0 mi West 9.2 mph - N/A Snow Light Snow
7:35 AM 13.1 °F 0.9 °F 8.6 °F 82% 29.21 in 2.5 mi West 9.2 mph 16.1 mph N/A Snow Light Snow
7:55 AM 12.6 °F -2.7 °F 7.9 °F 82% 29.22 in 4.0 mi WSW 13.8 mph 18.4 mph N/A Snow Light Snow
8:15 AM 12.6 °F -1.4 °F 8.1 °F 82% 29.23 in 2.5 mi West 11.5 mph 17.3 mph N/A Snow Light Snow
8:35 AM 12.9 °F -0.2 °F 7.7 °F 80% 29.24 in 5.0 mi WSW 10.4 mph 17.3 mph N/A Snow Light Snow
8:55 AM 13.1 °F 0.1 °F 8.2 °F 81% 29.24 in 5.0 mi WSW 10.4 mph - N/A Snow Light Snow
9:15 AM 13.1 °F -0.7 °F 7.7 °F 79% 29.25 in 3.0 mi West 11.5 mph - N/A   Haze
9:35 AM 12.9 °F -1.6 °F 7.7 °F 80% 29.26 in 3.0 mi WSW 12.7 mph 18.4 mph N/A   Haze
9:55 AM 13.1 °F 0.1 °F 8.1 °F 80% 29.27 in 3.0 mi WSW 10.4 mph - N/A Snow Light Snow
10:15 AM 13.1 °F -0.7 °F 7.9 °F 80% 29.28 in 2.5 mi WSW 11.5 mph - N/A Snow Light Snow
10:35 AM 13.6 °F 0.7 °F 8.2 °F 79% 29.29 in 4.0 mi WSW 10.4 mph - N/A Snow Light Snow
10:55 AM 14.4 °F 2.4 °F 8.6 °F 78% 29.29 in 4.0 mi WSW 9.2 mph - N/A Snow Light Snow
11:15 AM 14.9 °F 1.6 °F 8.8 °F 77% 29.30 in 3.0 mi WSW 11.5 mph 17.3 mph N/A   Haze
11:35 AM 14.0 °F -0.2 °F 8.1 °F 77% 29.30 in 4.0 mi WSW 12.7 mph 18.4 mph N/A   Haze
11:55 AM 14.0 °F -0.2 °F 8.1 °F 77% 29.31 in 4.0 mi WSW 12.7 mph 18.4 mph N/A   Haze
12:15 PM 15.1 °F 0.5 °F 9.0 °F 77% 29.32 in 2.5 mi WSW 13.8 mph 19.6 mph N/A   Haze
12:35 PM 14.9 °F 0.9 °F 9.3 °F 79% 29.32 in 2.0 mi WSW 12.7 mph 16.1 mph N/A   Haze
12:55 PM 14.0 °F -2.0 °F 8.2 °F 78% 29.34 in 1.5 mi WSW 16.1 mph 23.0 mph N/A Snow Light Snow
1:15 PM 14.0 °F -0.2 °F 8.4 °F 78% 29.35 in 2.0 mi WSW 12.7 mph 17.3 mph N/A Snow Light Snow
1:35 PM 13.8 °F 0.2 °F 8.2 °F 78% 29.36 in 3.0 mi WSW 11.5 mph 17.3 mph N/A Snow Light Snow
1:55 PM 13.1 °F -0.7 °F 7.7 °F 79% 29.37 in 2.0 mi WSW 11.5 mph 17.3 mph N/A Snow Light Snow
2:15 PM 12.9 °F -3.9 °F 7.7 °F 80% 29.38 in 2.0 mi WSW 17.3 mph 23.0 mph N/A Snow Light Snow
2:35 PM 13.1 °F -2.6 °F 8.1 °F 80% 29.39 in 1.5 mi WSW 15.0 mph 20.7 mph N/A Snow Light Snow
2:55 PM 13.1 °F -1.4 °F 8.1 °F 80% 29.40 in 1.8 mi WSW 12.7 mph 20.7 mph N/A Snow Light Snow
3:15 PM 12.9 °F -2.8 °F 7.7 °F 80% 29.41 in 2.5 mi WSW 15.0 mph 19.6 mph N/A Snow Light Snow
3:35 PM 12.7 °F -3.0 °F 7.7 °F 80% 29.42 in 2.0 mi WSW 15.0 mph - N/A Snow Light Snow
3:55 PM 12.7 °F -1.8 °F 8.2 °F 82% 29.43 in 3.0 mi WSW 12.7 mph 16.1 mph N/A Snow Light Snow
4:15 PM 12.7 °F -0.4 °F 8.1 °F 82% 29.44 in 3.0 mi WSW 10.4 mph - N/A Snow Light Snow
4:35 PM 12.9 °F -1.6 °F 8.2 °F 82% 29.46 in 3.0 mi WSW 12.7 mph 18.4 mph N/A Snow Light Snow
4:55 PM 13.1 °F -0.7 °F 8.4 °F 82% 29.46 in 3.0 mi WSW 11.5 mph - N/A Snow Light Snow
5:15 PM 13.1 °F 0.1 °F 8.6 °F 82% 29.48 in 3.0 mi WSW 10.4 mph 17.3 mph N/A Snow Light Snow
5:35 PM 12.9 °F -0.2 °F 8.6 °F 83% 29.49 in 3.0 mi WSW 10.4 mph - N/A Snow Light Snow
5:55 PM 12.7 °F -1.1 °F 8.4 °F 83% 29.50 in 4.0 mi WSW 11.5 mph 18.4 mph N/A Snow Light Snow
6:15 PM 12.2 °F -2.5 °F 7.7 °F 82% 29.51 in 4.0 mi WSW 12.7 mph - N/A Snow Light Snow
6:35 PM 12.0 °F -2.0 °F 7.5 °F 82% 29.52 in 5.0 mi WSW 11.5 mph 16.1 mph N/A Snow Light Snow
6:55 PM 11.8 °F -3.0 °F 7.3 °F 82% 29.53 in 5.0 mi WSW 12.7 mph 20.7 mph N/A Snow Light Snow
7:15 PM 11.7 °F -2.5 °F 7.0 °F 81% 29.54 in 7.0 mi WSW 11.5 mph 19.6 mph N/A Snow Light Snow
7:35 PM 11.3 °F -4.9 °F 6.8 °F 82% 29.55 in 10.0 mi WSW 15.0 mph - N/A   Overcast
7:55 PM 10.9 °F -3.4 °F 5.9 °F 80% 29.56 in 10.0 mi WSW 11.5 mph - N/A   Overcast
8:15 PM 10.9 °F -2.6 °F 5.9 °F 80% 29.56 in 10.0 mi WSW 10.4 mph 17.3 mph N/A   Overcast
8:35 PM 10.9 °F -2.6 °F 5.9 °F 80% 29.57 in 10.0 mi WSW 10.4 mph - N/A   Mostly Cloudy
8:55 PM 10.9 °F -2.6 °F 5.9 °F 80% 29.58 in 10.0 mi WSW 10.4 mph 16.1 mph N/A   Mostly Cloudy
9:15 PM 10.9 °F -1.8 °F 5.9 °F 80% 29.58 in 10.0 mi WSW 9.2 mph 16.1 mph N/A   Overcast
9:35 PM 10.9 °F -1.8 °F 5.9 °F 80% 29.59 in 10.0 mi WSW 9.2 mph - N/A   Overcast
9:55 PM 10.8 °F -2.0 °F 5.9 °F 81% 29.60 in 10.0 mi WSW 9.2 mph - N/A   Overcast
10:15 PM 10.6 °F -1.3 °F 5.7 °F 81% 29.61 in 10.0 mi WSW 8.1 mph - N/A   Overcast
10:35 PM 10.2 °F -3.5 °F 5.5 °F 81% 29.61 in 10.0 mi WSW 10.4 mph - N/A   Overcast
10:55 PM 10.0 °F -2.9 °F 5.2 °F 81% 29.62 in 10.0 mi WSW 9.2 mph 16.1 mph N/A   Overcast
11:15 PM 10.0 °F -0.9 °F 5.0 °F 80% 29.62 in 10.0 mi WSW 6.9 mph - N/A   Overcast
11:35 PM 9.5 °F -5.2 °F 4.8 °F 81% 29.62 in 10.0 mi West 11.5 mph - N/A   Overcast
11:55 PM 9.3 °F -6.1 °F 4.6 °F 81% 29.63 in 10.0 mi West 12.7 mph 17.3 mph N/A   Overcast